sat.trackr.live / text

‹ back to catalog

STARLINK-11639 [DTC]

NORAD 63189 · 2025-048G

PAYLOAD ACTIVE UNKNOWN

§ Identity

Operator
Country
US
Launch date
2025-03-13
Launch site
AFETR
Launch vehicle
Mass (kg)
RCS (m²)

Purposes: comms

External: N2YO · Heavens-Above · Gunter

§ Orbital elements

Epoch: 2026-05-25T04:36:00.059904Z

Period
91.66 min
Inclination
43.0004°
Eccentricity
0.0001032
Mean motion
15.70944603 rev/d
Perigee alt
355.5 km
Apogee alt
356.9 km
Semi-major
6,734.3 km
B*
1.2839e-3
RAAN
218.7029°
Arg perigee
241.6698°
Mean anomaly
118.4065°
Rev number
7,055

§ Raw data

STARLINK-11639 [DTC]1 63189U 25048G   26145.19166736  .00168413  00000+0  12839-2 0  99902 63189  43.0004 218.7029 0001032 241.6698 118.4065 15.70944603 70552

JSON: /api/v1/satellites/63189 · /tle

For live sub-satellite position, see the globe view (requires WebGL).

§ Visibility from observer

Set your observer location to see the next 7 days of passes ≥ 10°. The values pass through the URL so the page stays shareable.

No JS? Fill the form by hand. The geolocation button needs JavaScript.